Location: Amsterdam
(30.7274°N, 84.4357°W)
Time: 17:14:37
(UTC+00:00)

Injun/Solrad 3 - Pass Details

Date: 21 February 2026
Orbit: 871 x 985 km, 66.8° (Epoch: 11 March)

Event Time Altitude Azimuth Distance (km) Brightness Sun altitude
Rises 03:25:18 0° 305° (NW) 3,628 11.6 -50.6°
Enters shadow 03:29:20 - 279° (W) 2,819 10.9 -51.4°
Reaches altitude 10° 03:30:40 10° 267° (W) 2,704 - -51.7°
Maximum altitude 03:31:37 10° 258° (WSW) 2,682 - -51.9°
Drops below altitude 10° 03:32:35 10° 249° (WSW) 2,710 - -52.0°
Sets 03:38:03 0° 211° (SSW) 3,669 - -53.1°
